Time,TemperatureF,DewpointF,PressureIn,WindDirection,WindDirectionDegrees,WindSpeedMPH,WindSpeedGustMPH,Humidity,HourlyPrecipIn,Conditions,Clouds,dailyrainin,SoftwareType,DateUTC
2013-02-05 00:00:00,20.3,15.9,29.87,NNW,338,0.2,0.4,83,0.00,,,0.00,WUHU216HW,2013-02-05 05:00:00,
2013-02-05 00:05:00,20.3,15.9,29.88,NNW,338,0.0,0.4,83,0.00,,,0.00,WUHU216HW,2013-02-05 05:05:00,
2013-02-05 00:10:00,20.3,15.7,29.88,NNW,338,0.0,0.4,82,0.00,,,0.00,WUHU216HW,2013-02-05 05:10:00,
2013-02-05 00:15:00,20.3,15.7,29.88,NNW,338,0.0,0.4,82,0.00,,,0.00,WUHU216HW,2013-02-05 05:15:00,
2013-02-05 00:20:00,20.3,15.7,29.88,NNW,338,0.0,0.0,82,0.00,,,0.00,WUHU216HW,2013-02-05 05:20:00,
2013-02-05 00:25:00,20.3,15.7,29.88,NNW,338,0.0,0.0,82,0.00,,,0.00,WUHU216HW,2013-02-05 05:25:00,
2013-02-05 00:30:00,20.3,15.7,29.88,NNW,338,0.0,0.0,82,0.00,,,0.00,WUHU216HW,2013-02-05 05:30:00,
2013-02-05 00:35:00,20.3,15.7,29.87,NNW,338,0.0,0.0,82,0.00,,,0.00,WUHU216HW,2013-02-05 05:35:00,
2013-02-05 00:40:00,20.2,15.5,29.87,NNW,338,0.0,0.0,82,0.00,,,0.00,WUHU216HW,2013-02-05 05:40:00,
2013-02-05 00:45:00,20.2,15.5,29.87,NNW,338,0.0,0.0,82,0.00,,,0.00,WUHU216HW,2013-02-05 05:45:00,
2013-02-05 00:50:00,20.2,15.5,29.87,NNW,338,0.0,0.0,82,0.00,,,0.00,WUHU216HW,2013-02-05 05:50:00,
2013-02-05 00:55:00,20.2,15.5,29.87,NNW,338,0.0,0.0,82,0.00,,,0.00,WUHU216HW,2013-02-05 05:55:00,
2013-02-05 01:00:00,20.3,15.7,29.86,NNW,338,0.0,0.0,82,0.00,,,0.00,WUHU216HW,2013-02-05 06:00:00,
2013-02-05 01:05:00,20.3,15.7,29.86,NNW,338,0.0,0.0,82,0.00,,,0.00,WUHU216HW,2013-02-05 06:05:00,
2013-02-05 01:10:00,20.3,15.7,29.86,NNW,338,0.0,0.0,82,0.00,,,0.00,WUHU216HW,2013-02-05 06:10:00,
2013-02-05 01:15:00,20.2,15.5,29.85,NNW,338,0.0,0.0,82,0.00,,,0.00,WUHU216HW,2013-02-05 06:15:00,
2013-02-05 01:20:00,20.2,15.5,29.86,NNW,338,0.0,0.0,82,0.00,,,0.00,WUHU216HW,2013-02-05 06:20:00,
2013-02-05 01:25:00,20.2,15.5,29.86,NNW,338,0.0,0.0,82,0.00,,,0.00,WUHU216HW,2013-02-05 06:25:00,
2013-02-05 01:30:00,20.3,15.7,29.86,NNW,338,0.0,0.0,82,0.00,,,0.00,WUHU216HW,2013-02-05 06:30:00,
2013-02-05 01:35:00,20.3,15.7,29.85,NNW,338,0.0,0.0,82,0.00,,,0.00,WUHU216HW,2013-02-05 06:35:00,
2013-02-05 01:40:00,20.3,15.7,29.85,NNW,338,0.0,0.2,82,0.00,,,0.00,WUHU216HW,2013-02-05 06:40:00,
2013-02-05 01:45:00,20.3,15.7,29.85,NNW,338,0.2,0.4,82,0.00,,,0.00,WUHU216HW,2013-02-05 06:45:00,
2013-02-05 01:50:00,20.3,15.7,29.85,NNW,338,0.0,0.4,82,0.00,,,0.00,WUHU216HW,2013-02-05 06:50:00,
2013-02-05 01:55:00,20.3,15.7,29.85,NNW,338,0.0,0.0,82,0.00,,,0.00,WUHU216HW,2013-02-05 06:55:00,
2013-02-05 02:00:00,20.3,15.7,29.85,NNW,338,0.0,0.0,82,0.00,,,0.00,WUHU216HW,2013-02-05 07:00:00,
2013-02-05 02:05:00,20.3,15.7,29.86,NNW,338,0.0,0.0,82,0.00,,,0.00,WUHU216HW,2013-02-05 07:05:00,
2013-02-05 02:10:00,20.3,15.7,29.86,NNW,338,0.0,0.0,82,0.00,,,0.00,WUHU216HW,2013-02-05 07:10:00,
2013-02-05 02:15:00,20.3,15.7,29.85,NNW,338,0.0,0.0,82,0.00,,,0.00,WUHU216HW,2013-02-05 07:15:00,
2013-02-05 02:20:00,20.3,15.7,29.85,NNW,338,0.0,0.0,82,0.00,,,0.00,WUHU216HW,2013-02-05 07:20:00,
2013-02-05 02:25:00,20.3,15.7,29.85,NNW,338,0.0,0.0,82,0.00,,,0.00,WUHU216HW,2013-02-05 07:25:00,
2013-02-05 02:30:00,20.3,15.7,29.85,NNW,338,0.0,0.0,82,0.00,,,0.00,WUHU216HW,2013-02-05 07:30:00,
2013-02-05 02:35:00,20.2,15.5,29.86,NNW,338,0.0,0.0,82,0.00,,,0.00,WUHU216HW,2013-02-05 07:35:00,
2013-02-05 02:40:00,20.2,15.5,29.86,NNW,338,0.0,0.0,82,0.00,,,0.00,WUHU216HW,2013-02-05 07:40:00,
2013-02-05 02:45:00,20.3,15.7,29.86,NNW,338,0.0,0.0,82,0.00,,,0.00,WUHU216HW,2013-02-05 07:45:00,
2013-02-05 02:50:00,20.3,15.7,29.85,NNW,338,0.0,0.2,82,0.00,,,0.00,WUHU216HW,2013-02-05 07:50:00,
2013-02-05 02:55:00,20.3,15.7,29.86,NNW,338,0.0,0.2,82,0.00,,,0.00,WUHU216HW,2013-02-05 07:55:00,
2013-02-05 03:00:00,20.2,15.5,29.86,NNW,338,0.0,0.0,82,0.00,,,0.00,WUHU216HW,2013-02-05 08:00:00,
2013-02-05 03:05:00,20.2,15.5,29.87,NNW,338,0.0,0.0,82,0.00,,,0.00,WUHU216HW,2013-02-05 08:05:00,
2013-02-05 03:10:00,20.3,15.7,29.87,NNW,338,0.0,0.0,82,0.00,,,0.00,WUHU216HW,2013-02-05 08:10:00,
2013-02-05 03:15:00,20.5,15.8,29.86,NNW,338,0.0,0.0,82,0.00,,,0.00,WUHU216HW,2013-02-05 08:15:00,
2013-02-05 03:20:00,20.5,15.8,29.86,NNW,338,0.0,0.0,82,0.00,,,0.00,WUHU216HW,2013-02-05 08:20:00,
2013-02-05 03:25:00,20.5,15.8,29.86,NNW,338,0.0,0.0,82,0.00,,,0.00,WUHU216HW,2013-02-05 08:25:00,
2013-02-05 03:30:00,20.5,16.1,29.86,NNW,338,0.0,0.0,83,0.00,,,0.00,WUHU216HW,2013-02-05 08:30:00,
2013-02-05 03:35:00,20.5,15.8,29.86,NNW,338,0.0,0.0,82,0.00,,,0.00,WUHU216HW,2013-02-05 08:35:00,
2013-02-05 03:40:00,20.5,16.1,29.86,NNW,338,0.0,0.0,83,0.00,,,0.00,WUHU216HW,2013-02-05 08:40:00,
2013-02-05 03:45:00,20.5,16.1,29.86,NNW,338,0.0,0.0,83,0.00,,,0.00,WUHU216HW,2013-02-05 08:45:00,
2013-02-05 03:50:00,20.5,16.1,29.86,NNW,338,0.0,0.0,83,0.00,,,0.00,WUHU216HW,2013-02-05 08:50:00,
2013-02-05 03:55:00,20.5,16.1,29.85,NNW,338,0.0,0.0,83,0.00,,,0.00,WUHU216HW,2013-02-05 08:55:00,
2013-02-05 04:00:00,20.5,16.1,29.85,NNW,338,0.0,0.0,83,0.00,,,0.00,WUHU216HW,2013-02-05 09:00:00,
2013-02-05 04:05:00,20.5,16.1,29.85,NNW,338,0.0,0.0,83,0.00,,,0.00,WUHU216HW,2013-02-05 09:05:00,
2013-02-05 04:10:00,20.5,16.1,29.85,NNW,338,0.0,0.0,83,0.00,,,0.00,WUHU216HW,2013-02-05 09:10:00,
2013-02-05 04:15:00,20.5,16.1,29.85,NNW,338,0.0,0.0,83,0.00,,,0.00,WUHU216HW,2013-02-05 09:15:00,
2013-02-05 04:20:00,20.3,15.9,29.85,NNW,338,0.0,0.0,83,0.00,,,0.00,WUHU216HW,2013-02-05 09:20:00,
2013-02-05 04:25:00,20.3,15.9,29.85,NNW,338,0.0,0.0,83,0.00,,,0.00,WUHU216HW,2013-02-05 09:25:00,
2013-02-05 04:30:00,20.3,15.9,29.85,NNW,338,0.0,0.0,83,0.00,,,0.00,WUHU216HW,2013-02-05 09:30:00,
2013-02-05 04:35:00,20.2,15.8,29.85,NNW,338,0.0,0.0,83,0.00,,,0.00,WUHU216HW,2013-02-05 09:35:00,
2013-02-05 04:40:00,20.3,15.9,29.85,NNW,338,0.0,0.0,83,0.00,,,0.00,WUHU216HW,2013-02-05 09:40:00,
2013-02-05 04:45:00,20.3,15.9,29.84,NNW,338,0.0,0.0,83,0.00,,,0.00,WUHU216HW,2013-02-05 09:45:00,
2013-02-05 04:50:00,20.3,15.9,29.84,NNW,338,0.4,0.4,83,0.00,,,0.00,WUHU216HW,2013-02-05 09:50:00,
2013-02-05 04:55:00,20.2,15.8,29.85,NNW,338,0.0,0.4,83,0.00,,,0.00,WUHU216HW,2013-02-05 09:55:00,
2013-02-05 05:00:00,20.2,15.8,29.85,NNW,338,0.0,1.1,83,0.00,,,0.00,WUHU216HW,2013-02-05 10:00:00,
2013-02-05 05:05:00,20.2,15.8,29.85,NNW,338,0.0,1.1,83,0.00,,,0.00,WUHU216HW,2013-02-05 10:05:00,
2013-02-05 05:10:00,20.0,15.6,29.84,NNW,338,0.0,0.0,83,0.00,,,0.00,WUHU216HW,2013-02-05 10:10:00,
2013-02-05 05:15:00,20.0,15.6,29.85,NNW,338,0.0,0.0,83,0.00,,,0.00,WUHU216HW,2013-02-05 10:15:00,
2013-02-05 05:20:00,19.8,15.4,29.84,NNW,338,0.0,0.0,83,0.00,,,0.00,WUHU216HW,2013-02-05 10:20:00,
2013-02-05 05:25:00,19.8,15.1,29.84,NNW,338,0.0,0.2,82,0.00,,,0.00,WUHU216HW,2013-02-05 10:25:00,
2013-02-05 05:30:00,19.6,15.2,29.85,NNW,338,0.0,0.2,83,0.00,,,0.00,WUHU216HW,2013-02-05 10:30:00,
2013-02-05 05:35:00,19.6,15.2,29.85,NNW,338,0.0,0.2,83,0.00,,,0.00,WUHU216HW,2013-02-05 10:35:00,
2013-02-05 05:40:00,19.6,15.2,29.85,NNW,338,0.0,0.0,83,0.00,,,0.00,WUHU216HW,2013-02-05 10:40:00,
2013-02-05 05:45:00,19.6,15.2,29.85,NNW,338,0.0,0.0,83,0.00,,,0.00,WUHU216HW,2013-02-05 10:45:00,
2013-02-05 05:50:00,19.8,15.4,29.85,NNW,338,0.0,0.0,83,0.00,,,0.00,WUHU216HW,2013-02-05 10:50:00,
2013-02-05 05:55:00,19.8,15.4,29.85,NNW,338,0.0,0.0,83,0.00,,,0.00,WUHU216HW,2013-02-05 10:55:00,
2013-02-05 06:00:00,19.8,15.4,29.85,NNW,338,0.0,0.0,83,0.00,,,0.00,WUHU216HW,2013-02-05 11:00:00,
2013-02-05 06:05:00,19.8,15.4,29.85,NNW,338,0.0,0.0,83,0.00,,,0.00,WUHU216HW,2013-02-05 11:05:00,
2013-02-05 06:10:00,19.8,15.4,29.85,NNW,338,0.0,0.0,83,0.00,,,0.00,WUHU216HW,2013-02-05 11:10:00,
2013-02-05 06:15:00,19.8,15.4,29.85,NNW,338,0.0,0.0,83,0.00,,,0.00,WUHU216HW,2013-02-05 11:15:00,
2013-02-05 06:20:00,19.8,15.4,29.85,NNW,338,0.0,0.7,83,0.00,,,0.00,WUHU216HW,2013-02-05 11:20:00,
2013-02-05 06:25:00,19.8,15.4,29.85,NNW,338,1.1,1.1,83,0.00,,,0.00,WUHU216HW,2013-02-05 11:25:00,
2013-02-05 06:30:00,20.0,15.6,29.85,NNW,338,0.0,1.1,83,0.00,,,0.00,WUHU216HW,2013-02-05 11:30:00,
2013-02-05 06:35:00,20.0,15.6,29.85,NNW,338,0.0,0.4,83,0.00,,,0.00,WUHU216HW,2013-02-05 11:35:00,
2013-02-05 06:40:00,20.0,15.6,29.85,NNW,338,0.0,0.0,83,0.00,,,0.00,WUHU216HW,2013-02-05 11:40:00,
2013-02-05 06:45:00,20.0,15.6,29.85,NNW,338,0.0,1.6,83,0.00,,,0.00,WUHU216HW,2013-02-05 11:45:00,
2013-02-05 06:50:00,20.0,15.6,29.85,NNW,338,0.0,1.6,83,0.00,,,0.00,WUHU216HW,2013-02-05 11:50:00,
2013-02-05 06:55:00,20.0,15.6,29.85,NNW,338,0.0,0.0,83,0.00,,,0.00,WUHU216HW,2013-02-05 11:55:00,
2013-02-05 07:00:00,20.0,15.6,29.85,NNW,338,0.0,0.0,83,0.00,,,0.00,WUHU216HW,2013-02-05 12:00:00,
2013-02-05 07:05:00,20.2,15.8,29.85,NNW,338,0.0,0.0,83,0.00,,,0.00,WUHU216HW,2013-02-05 12:05:00,
2013-02-05 07:10:00,20.2,15.8,29.85,NNW,338,0.0,0.0,83,0.00,,,0.00,WUHU216HW,2013-02-05 12:10:00,
2013-02-05 07:15:00,20.2,15.8,29.85,NNW,338,0.0,0.0,83,0.00,,,0.00,WUHU216HW,2013-02-05 12:15:00,
2013-02-05 07:20:00,20.0,15.6,29.85,NNW,338,0.0,0.0,83,0.00,,,0.00,WUHU216HW,2013-02-05 12:20:00,
2013-02-05 07:25:00,20.0,15.6,29.85,NNW,338,0.0,0.0,83,0.00,,,0.00,WUHU216HW,2013-02-05 12:25:00,
2013-02-05 07:30:00,19.8,15.4,29.85,NNW,338,0.0,0.0,83,0.00,,,0.00,WUHU216HW,2013-02-05 12:30:00,
2013-02-05 07:35:00,19.8,15.4,29.85,NNW,338,0.0,0.0,83,0.00,,,0.00,WUHU216HW,2013-02-05 12:35:00,
2013-02-05 07:40:00,19.6,15.2,29.86,NNW,338,0.0,0.0,83,0.00,,,0.00,WUHU216HW,2013-02-05 12:40:00,
2013-02-05 07:45:00,19.4,15.0,29.86,NNW,338,0.0,0.0,83,0.00,,,0.00,WUHU216HW,2013-02-05 12:45:00,
2013-02-05 07:50:00,19.3,14.9,29.85,NNW,338,0.0,0.0,83,0.00,,,0.00,WUHU216HW,2013-02-05 12:50:00,
2013-02-05 07:55:00,19.3,14.9,29.86,NNW,338,0.0,0.0,83,0.00,,,0.00,WUHU216HW,2013-02-05 12:55:00,
2013-02-05 08:00:00,19.4,15.0,29.86,NNW,338,0.0,0.0,83,0.00,,,0.00,WUHU216HW,2013-02-05 13:00:00,
2013-02-05 08:05:00,19.4,15.0,29.86,NNW,338,0.0,0.0,83,0.00,,,0.00,WUHU216HW,2013-02-05 13:05:00,
2013-02-05 08:10:00,19.3,14.9,29.86,NNW,338,0.0,0.0,83,0.00,,,0.00,WUHU216HW,2013-02-05 13:10:00,
2013-02-05 08:15:00,19.3,14.9,29.86,NNW,338,0.2,0.4,83,0.00,,,0.00,WUHU216HW,2013-02-05 13:15:00,
2013-02-05 08:20:00,19.3,14.9,29.86,NNW,338,0.0,0.4,83,0.00,,,0.00,WUHU216HW,2013-02-05 13:20:00,
2013-02-05 08:25:00,19.4,15.0,29.86,NNW,338,0.4,1.1,83,0.00,,,0.00,WUHU216HW,2013-02-05 13:25:00,
2013-02-05 08:30:00,19.8,15.4,29.86,NNW,338,0.4,1.1,83,0.00,,,0.00,WUHU216HW,2013-02-05 13:30:00,
2013-02-05 08:35:00,20.0,15.6,29.86,NNW,338,0.7,1.1,83,0.00,,,0.00,WUHU216HW,2013-02-05 13:35:00,
2013-02-05 08:40:00,20.2,15.8,29.87,NNW,338,1.1,1.1,83,0.00,,,0.00,WUHU216HW,2013-02-05 13:40:00,
2013-02-05 08:45:00,20.5,16.1,29.87,NNW,338,0.4,1.1,83,0.00,,,0.00,WUHU216HW,2013-02-05 13:45:00,
2013-02-05 08:50:00,20.5,16.1,29.87,NNW,338,1.1,1.1,83,0.00,,,0.00,WUHU216HW,2013-02-05 13:50:00,
2013-02-05 08:55:00,20.5,16.1,29.87,NNW,338,0.9,1.8,83,0.00,,,0.00,WUHU216HW,2013-02-05 13:55:00,
2013-02-05 09:00:00,20.5,15.8,29.87,NNW,338,0.9,1.8,82,0.00,,,0.00,WUHU216HW,2013-02-05 14:00:00,
2013-02-05 09:05:00,20.9,16.5,29.87,NNW,338,0.9,1.8,83,0.00,,,0.00,WUHU216HW,2013-02-05 14:05:00,
2013-02-05 09:10:00,21.1,16.7,29.87,NNW,338,2.2,2.2,83,0.00,,,0.00,WUHU216HW,2013-02-05 14:10:00,
2013-02-05 09:15:00,21.2,16.6,29.87,NNW,338,1.1,2.2,82,0.00,,,0.00,WUHU216HW,2013-02-05 14:15:00,
2013-02-05 09:20:00,21.8,17.1,29.86,NNW,338,2.0,2.5,82,0.00,,,0.00,WUHU216HW,2013-02-05 14:20:00,
2013-02-05 09:25:00,22.0,17.3,29.85,NNW,338,0.4,2.9,82,0.00,,,0.00,WUHU216HW,2013-02-05 14:25:00,
2013-02-05 09:30:00,22.5,17.8,29.85,NNW,338,3.4,3.4,82,0.00,,,0.00,WUHU216HW,2013-02-05 14:30:00,
2013-02-05 09:35:00,22.5,17.6,29.86,NNW,338,0.4,3.4,81,0.00,,,0.00,WUHU216HW,2013-02-05 14:35:00,
2013-02-05 09:40:00,22.7,17.5,29.86,NNW,338,1.1,4.0,80,0.00,,,0.00,WUHU216HW,2013-02-05 14:40:00,
2013-02-05 09:45:00,22.9,17.6,29.86,NNW,338,1.1,4.3,80,0.00,,,0.00,WUHU216HW,2013-02-05 14:45:00,
2013-02-05 09:50:00,23.0,17.6,29.86,NNW,338,1.1,4.3,79,0.00,,,0.00,WUHU216HW,2013-02-05 14:50:00,
2013-02-05 09:55:00,23.4,18.2,29.86,NNW,338,1.1,2.9,80,0.00,,,0.00,WUHU216HW,2013-02-05 14:55:00,
2013-02-05 10:00:00,23.8,18.5,29.85,NNW,338,3.4,3.4,80,0.00,,,0.00,WUHU216HW,2013-02-05 15:00:00,
2013-02-05 10:05:00,23.9,18.7,29.85,NNW,338,1.8,5.6,80,0.00,,,0.00,WUHU216HW,2013-02-05 15:05:00,
2013-02-05 10:10:00,24.1,18.5,29.85,NNW,338,0.4,5.6,79,0.00,,,0.00,WUHU216HW,2013-02-05 15:10:00,
2013-02-05 10:15:00,24.1,18.5,29.85,NNW,338,4.0,4.0,79,0.00,,,0.00,WUHU216HW,2013-02-05 15:15:00,
2013-02-05 10:20:00,24.5,18.6,29.85,NNW,338,4.5,6.0,78,0.00,,,0.00,WUHU216HW,2013-02-05 15:20:00,
2013-02-05 10:25:00,24.5,18.6,29.85,NNW,338,1.1,6.0,78,0.00,,,0.00,WUHU216HW,2013-02-05 15:25:00,
2013-02-05 10:30:00,24.8,19.0,29.85,NNW,338,1.1,4.3,78,0.00,,,0.00,WUHU216HW,2013-02-05 15:30:00,
2013-02-05 10:35:00,24.8,18.6,29.85,NNW,338,1.3,4.3,77,0.00,,,0.00,WUHU216HW,2013-02-05 15:35:00,
2013-02-05 10:40:00,24.8,18.6,29.84,NNW,338,4.7,4.7,77,0.00,,,0.00,WUHU216HW,2013-02-05 15:40:00,
2013-02-05 10:45:00,24.8,18.6,29.84,NNW,338,6.0,6.0,77,0.00,,,0.00,WUHU216HW,2013-02-05 15:45:00,
2013-02-05 10:50:00,24.8,18.6,29.84,NNW,338,2.0,6.0,77,0.00,,,0.00,WUHU216HW,2013-02-05 15:50:00,
2013-02-05 10:55:00,24.8,18.6,29.83,NNW,338,1.6,5.1,77,0.00,,,0.00,WUHU216HW,2013-02-05 15:55:00,
2013-02-05 11:00:00,25.4,19.2,29.83,NNW,338,2.0,4.0,77,0.00,,,0.00,WUHU216HW,2013-02-05 16:00:00,
2013-02-05 11:05:00,25.4,18.8,29.83,NNW,338,4.5,7.4,76,0.00,,,0.00,WUHU216HW,2013-02-05 16:05:00,
2013-02-05 11:10:00,25.2,18.6,29.83,NNW,338,1.3,7.4,76,0.00,,,0.00,WUHU216HW,2013-02-05 16:10:00,
2013-02-05 11:15:00,25.2,18.6,29.83,NNW,338,0.2,5.4,76,0.00,,,0.00,WUHU216HW,2013-02-05 16:15:00,
2013-02-05 11:20:00,25.4,19.2,29.83,NNW,338,4.5,4.5,77,0.00,,,0.00,WUHU216HW,2013-02-05 16:20:00,
2013-02-05 11:25:00,25.6,18.7,29.83,NNW,338,4.7,5.6,75,0.00,,,0.00,WUHU216HW,2013-02-05 16:25:00,
2013-02-05 11:30:00,25.6,18.7,29.82,NNW,338,2.5,5.6,75,0.00,,,0.00,WUHU216HW,2013-02-05 16:30:00,
2013-02-05 11:35:00,25.6,19.0,29.82,NNW,338,1.3,5.1,76,0.00,,,0.00,WUHU216HW,2013-02-05 16:35:00,
2013-02-05 11:40:00,25.6,18.7,29.82,NNW,338,1.6,4.5,75,0.00,,,0.00,WUHU216HW,2013-02-05 16:40:00,
2013-02-05 11:45:00,25.6,18.7,29.81,NNW,338,4.0,4.0,75,0.00,,,0.00,WUHU216HW,2013-02-05 16:45:00,
2013-02-05 11:50:00,25.6,18.4,29.80,NNW,338,4.0,9.2,74,0.00,,,0.00,WUHU216HW,2013-02-05 16:50:00,
2013-02-05 11:55:00,25.9,19.0,29.80,NNW,338,5.6,9.2,75,0.00,,,0.00,WUHU216HW,2013-02-05 16:55:00,
2013-02-05 12:00:00,26.3,19.4,29.81,NNW,338,2.2,6.7,75,0.00,,,0.00,WUHU216HW,2013-02-05 17:00:00,
2013-02-05 12:05:00,26.1,18.5,29.80,NNW,338,2.9,6.7,73,0.00,,,0.00,WUHU216HW,2013-02-05 17:05:00,
2013-02-05 12:10:00,25.9,19.0,29.80,NNW,338,0.9,6.0,75,0.00,,,0.00,WUHU216HW,2013-02-05 17:10:00,
2013-02-05 12:15:00,26.1,18.9,29.80,NNW,338,8.5,8.5,74,0.00,,,0.00,WUHU216HW,2013-02-05 17:15:00,
2013-02-05 12:20:00,25.9,18.7,29.80,NNW,338,4.9,8.5,74,0.00,,,0.00,WUHU216HW,2013-02-05 17:20:00,
2013-02-05 12:25:00,25.7,18.3,29.80,NNW,338,3.6,6.9,73,0.00,,,0.00,WUHU216HW,2013-02-05 17:25:00,
2013-02-05 12:30:00,26.1,18.9,29.81,NNW,338,3.6,6.9,74,0.00,,,0.00,WUHU216HW,2013-02-05 17:30:00,
2013-02-05 12:35:00,26.8,19.3,29.80,NNW,338,0.9,6.5,73,0.00,,,0.00,WUHU216HW,2013-02-05 17:35:00,
2013-02-05 12:40:00,27.4,19.8,29.80,NNW,338,4.0,6.5,73,0.00,,,0.00,WUHU216HW,2013-02-05 17:40:00,
2013-02-05 12:45:00,27.7,20.5,29.80,NNW,338,3.4,5.4,74,0.00,,,0.00,WUHU216HW,2013-02-05 17:45:00,
2013-02-05 12:50:00,28.1,20.5,29.80,NNW,338,6.0,6.0,73,0.00,,,0.00,WUHU216HW,2013-02-05 17:50:00,
2013-02-05 12:55:00,28.4,21.3,29.80,NNW,338,1.6,6.0,74,0.00,,,0.00,WUHU216HW,2013-02-05 17:55:00,
2013-02-05 13:00:00,28.8,21.5,29.79,South,180,3.6,4.7,74,0.00,,,0.00,WUHU216HW,2013-02-05 18:00:00,
2013-02-05 13:05:00,29.2,21.0,29.79,WSW,248,3.4,3.6,71,0.00,,,0.00,WUHU216HW,2013-02-05 18:05:00,
2013-02-05 13:10:00,29.2,20.6,29.79,West,270,4.0,4.0,70,0.00,,,0.00,WUHU216HW,2013-02-05 18:10:00,
2013-02-05 13:15:00,29.2,21.0,29.79,SW,225,3.4,4.0,71,0.00,,,0.00,WUHU216HW,2013-02-05 18:15:00,
2013-02-05 13:20:00,29.0,20.4,29.78,SSW,203,2.5,3.6,70,0.00,,,0.00,WUHU216HW,2013-02-05 18:20:00,
2013-02-05 13:25:00,29.0,20.1,29.78,South,180,4.5,4.5,69,0.00,,,0.00,WUHU216HW,2013-02-05 18:25:00,
2013-02-05 13:30:00,29.2,20.3,29.77,West,270,2.5,5.4,69,0.00,,,0.00,WUHU216HW,2013-02-05 18:30:00,
2013-02-05 13:35:00,29.2,19.9,29.77,South,180,4.7,5.4,68,0.00,,,0.00,WUHU216HW,2013-02-05 18:35:00,
2013-02-05 13:40:00,29.3,19.7,29.77,South,180,5.6,5.6,67,0.00,,,0.00,WUHU216HW,2013-02-05 18:40:00,
2013-02-05 13:45:00,29.5,20.3,29.77,SSW,203,1.8,5.6,68,0.00,,,0.00,WUHU216HW,2013-02-05 18:45:00,
2013-02-05 13:50:00,29.5,19.9,29.77,SSW,203,2.5,4.5,67,0.00,,,0.00,WUHU216HW,2013-02-05 18:50:00,
2013-02-05 13:55:00,29.5,19.5,29.77,SW,225,5.6,5.6,66,0.00,,,0.00,WUHU216HW,2013-02-05 18:55:00,
2013-02-05 14:00:00,29.7,20.4,29.77,South,180,4.7,5.6,68,0.00,,,0.00,WUHU216HW,2013-02-05 19:00:00,
2013-02-05 14:05:00,29.7,20.1,29.77,SSW,203,2.5,5.4,67,0.00,,,0.00,WUHU216HW,2013-02-05 19:05:00,
2013-02-05 14:10:00,29.7,20.1,29.77,SSW,203,2.9,5.4,67,0.00,,,0.00,WUHU216HW,2013-02-05 19:10:00,
2013-02-05 14:15:00,29.5,19.9,29.77,South,180,1.8,3.6,67,0.00,,,0.00,WUHU216HW,2013-02-05 19:15:00,
2013-02-05 14:20:00,29.3,19.4,29.77,SSE,158,3.6,6.3,66,0.00,,,0.00,WUHU216HW,2013-02-05 19:20:00,
2013-02-05 14:25:00,29.2,19.2,29.77,SSW,203,2.5,6.3,66,0.00,,,0.00,WUHU216HW,2013-02-05 19:25:00,
2013-02-05 14:30:00,29.2,19.2,29.76,South,180,3.6,5.4,66,0.00,,,0.00,WUHU216HW,2013-02-05 19:30:00,
2013-02-05 14:35:00,29.2,19.2,29.75,SSW,203,2.7,6.0,66,0.00,,,0.00,WUHU216HW,2013-02-05 19:35:00,
2013-02-05 14:40:00,29.0,19.4,29.76,SSW,203,1.1,7.6,67,0.00,,,0.00,WUHU216HW,2013-02-05 19:40:00,
2013-02-05 14:45:00,28.8,19.3,29.76,South,180,1.8,7.6,67,0.00,,,0.00,WUHU216HW,2013-02-05 19:45:00,
2013-02-05 14:50:00,28.8,19.6,29.75,SW,225,3.4,5.1,68,0.00,,,0.00,WUHU216HW,2013-02-05 19:50:00,
2013-02-05 14:55:00,28.8,19.6,29.76,WSW,248,1.8,5.1,68,0.00,,,0.00,WUHU216HW,2013-02-05 19:55:00,
2013-02-05 15:00:00,28.6,19.5,29.76,South,180,4.5,5.4,68,0.00,,,0.00,WUHU216HW,2013-02-05 20:00:00,
2013-02-05 15:05:00,28.8,20.0,29.76,SSW,203,1.8,5.4,69,0.00,,,0.00,WUHU216HW,2013-02-05 20:05:00,
2013-02-05 15:10:00,28.4,19.6,29.76,West,270,3.4,4.0,69,0.00,,,0.00,WUHU216HW,2013-02-05 20:10:00,
2013-02-05 15:15:00,28.4,19.6,29.76,SSW,203,1.3,4.7,69,0.00,,,0.00,WUHU216HW,2013-02-05 20:15:00,
2013-02-05 15:20:00,28.6,20.2,29.76,SSE,158,1.8,4.7,70,0.00,,,0.00,WUHU216HW,2013-02-05 20:20:00,
2013-02-05 15:25:00,28.4,20.0,29.76,SSW,203,4.9,4.9,70,0.00,,,0.00,WUHU216HW,2013-02-05 20:25:00,
2013-02-05 15:30:00,28.4,20.0,29.76,WSW,248,1.3,4.9,70,0.00,,,0.00,WUHU216HW,2013-02-05 20:30:00,
2013-02-05 15:35:00,28.4,20.0,29.75,SW,225,0.9,4.3,70,0.00,,,0.00,WUHU216HW,2013-02-05 20:35:00,
2013-02-05 15:40:00,28.4,20.0,29.76,SSW,203,2.9,3.4,70,0.00,,,0.00,WUHU216HW,2013-02-05 20:40:00,
2013-02-05 15:45:00,28.4,20.3,29.75,South,180,6.5,6.5,71,0.00,,,0.00,WUHU216HW,2013-02-05 20:45:00,
2013-02-05 15:50:00,28.4,20.3,29.75,South,180,1.8,6.5,71,0.00,,,0.00,WUHU216HW,2013-02-05 20:50:00,
2013-02-05 15:55:00,28.6,20.4,29.75,SSW,203,1.8,5.4,71,0.00,,,0.00,WUHU216HW,2013-02-05 20:55:00,
2013-02-05 16:00:00,28.4,20.3,29.75,South,180,1.8,5.4,71,0.00,,,0.00,WUHU216HW,2013-02-05 21:00:00,
2013-02-05 16:05:00,28.3,20.4,29.75,SSW,203,1.6,4.9,72,0.00,,,0.00,WUHU216HW,2013-02-05 21:05:00,
2013-02-05 16:10:00,28.1,20.3,29.75,SSW,203,3.6,4.9,72,0.00,,,0.00,WUHU216HW,2013-02-05 21:10:00,
2013-02-05 16:15:00,28.1,20.3,29.75,SW,225,2.5,3.6,72,0.00,,,0.00,WUHU216HW,2013-02-05 21:15:00,
2013-02-05 16:20:00,27.9,20.3,29.75,SSW,203,1.1,3.1,73,0.00,,,0.00,WUHU216HW,2013-02-05 21:20:00,
2013-02-05 16:25:00,27.9,20.3,29.75,WSW,248,0.2,3.1,73,0.00,,,0.00,WUHU216HW,2013-02-05 21:25:00,
2013-02-05 16:30:00,27.9,20.3,29.75,WSW,248,1.1,3.4,73,0.00,,,0.00,WUHU216HW,2013-02-05 21:30:00,
2013-02-05 16:35:00,27.7,20.5,29.75,SSW,203,2.2,6.0,74,0.00,,,0.00,WUHU216HW,2013-02-05 21:35:00,
2013-02-05 16:40:00,27.7,20.5,29.76,South,180,2.5,6.0,74,0.00,,,0.00,WUHU216HW,2013-02-05 21:40:00,
2013-02-05 16:45:00,27.7,20.8,29.75,SSW,203,1.8,2.5,75,0.00,,,0.00,WUHU216HW,2013-02-05 21:45:00,
2013-02-05 16:50:00,27.7,20.8,29.75,South,180,2.5,2.9,75,0.00,,,0.00,WUHU216HW,2013-02-05 21:50:00,
2013-02-05 16:55:00,27.7,21.1,29.75,South,180,1.1,2.9,76,0.00,,,0.00,WUHU216HW,2013-02-05 21:55:00,
2013-02-05 17:00:00,27.5,20.9,29.75,WSW,248,2.7,3.4,76,0.00,,,0.00,WUHU216HW,2013-02-05 22:00:00,
2013-02-05 17:05:00,27.4,20.7,29.75,West,270,2.9,3.4,76,0.00,,,0.00,WUHU216HW,2013-02-05 22:05:00,
2013-02-05 17:10:00,27.4,20.7,29.75,WSW,248,0.2,2.9,76,0.00,,,0.00,WUHU216HW,2013-02-05 22:10:00,
2013-02-05 17:15:00,27.2,20.9,29.75,South,180,1.6,2.5,77,0.00,,,0.00,WUHU216HW,2013-02-05 22:15:00,
2013-02-05 17:20:00,27.0,21.0,29.75,SSW,203,2.5,3.4,78,0.00,,,0.00,WUHU216HW,2013-02-05 22:20:00,
2013-02-05 17:25:00,26.8,21.2,29.75,SSW,203,0.4,3.8,79,0.00,,,0.00,WUHU216HW,2013-02-05 22:25:00,
2013-02-05 17:30:00,26.6,21.2,29.75,SSW,203,0.9,3.8,80,0.00,,,0.00,WUHU216HW,2013-02-05 22:30:00,
2013-02-05 17:35:00,26.6,21.2,29.75,SSW,203,2.5,3.4,80,0.00,,,0.00,WUHU216HW,2013-02-05 22:35:00,
2013-02-05 17:40:00,26.6,21.2,29.75,SSW,203,1.8,2.9,80,0.00,,,0.00,WUHU216HW,2013-02-05 22:40:00,
2013-02-05 17:45:00,26.6,21.2,29.75,SSW,203,2.0,2.5,80,0.00,,,0.00,WUHU216HW,2013-02-05 22:45:00,
2013-02-05 17:50:00,26.5,21.1,29.75,SSW,203,2.2,2.2,80,0.00,,,0.00,WUHU216HW,2013-02-05 22:50:00,
2013-02-05 17:55:00,26.5,21.3,29.76,South,180,1.1,2.5,81,0.00,,,0.00,WUHU216HW,2013-02-05 22:55:00,
2013-02-05 18:00:00,26.5,21.3,29.76,SSW,203,1.8,3.6,81,0.00,,,0.00,WUHU216HW,2013-02-05 23:00:00,
2013-02-05 18:05:00,26.5,21.3,29.76,South,180,4.3,4.3,81,0.00,,,0.00,WUHU216HW,2013-02-05 23:05:00,
2013-02-05 18:10:00,26.3,21.3,29.76,SSW,203,0.4,4.3,81,0.00,,,0.00,WUHU216HW,2013-02-05 23:10:00,
2013-02-05 18:15:00,26.3,21.3,29.77,SSW,203,1.6,2.5,81,0.00,,,0.00,WUHU216HW,2013-02-05 23:15:00,
2013-02-05 18:20:00,26.3,21.5,29.77,South,180,1.8,2.5,82,0.00,,,0.00,WUHU216HW,2013-02-05 23:20:00,
2013-02-05 18:25:00,26.1,20.8,29.77,SSW,203,1.8,2.5,80,0.00,,,0.00,WUHU216HW,2013-02-05 23:25:00,
2013-02-05 18:30:00,26.1,21.1,29.77,South,180,3.4,3.4,81,0.00,,,0.00,WUHU216HW,2013-02-05 23:30:00,
2013-02-05 18:35:00,26.1,21.3,29.77,SSE,158,2.7,3.4,82,0.00,,,0.00,WUHU216HW,2013-02-05 23:35:00,
2013-02-05 18:40:00,26.1,21.3,29.77,South,180,2.5,3.4,82,0.00,,,0.00,WUHU216HW,2013-02-05 23:40:00,
2013-02-05 18:45:00,26.1,21.3,29.77,South,180,2.9,3.4,82,0.00,,,0.00,WUHU216HW,2013-02-05 23:45:00,
2013-02-05 18:50:00,26.1,21.1,29.77,South,180,5.1,5.1,81,0.00,,,0.00,WUHU216HW,2013-02-05 23:50:00,
2013-02-05 18:55:00,26.1,21.3,29.78,WSW,248,3.6,5.1,82,0.00,,,0.00,WUHU216HW,2013-02-05 23:55:00,
2013-02-05 19:00:00,26.1,21.3,29.78,SSW,203,0.4,3.6,82,0.00,,,0.00,WUHU216HW,2013-02-06 00:00:00,
2013-02-05 19:05:00,26.3,21.8,29.78,SSW,203,0.7,3.4,83,0.00,,,0.00,WUHU216HW,2013-02-06 00:05:00,
2013-02-05 19:10:00,26.3,21.8,29.78,SW,225,1.1,3.4,83,0.00,,,0.00,WUHU216HW,2013-02-06 00:10:00,
2013-02-05 19:15:00,26.3,21.8,29.79,South,180,1.6,2.5,83,0.00,,,0.00,WUHU216HW,2013-02-06 00:15:00,
2013-02-05 19:20:00,26.3,21.8,29.79,SSW,203,4.7,4.7,83,0.00,,,0.00,WUHU216HW,2013-02-06 00:20:00,
2013-02-05 19:25:00,26.3,21.8,29.79,SW,225,0.4,4.7,83,0.00,,,0.00,WUHU216HW,2013-02-06 00:25:00,
2013-02-05 19:30:00,26.3,21.8,29.80,SSW,203,2.0,4.3,83,0.00,,,0.00,WUHU216HW,2013-02-06 00:30:00,
2013-02-05 19:35:00,26.3,21.8,29.80,SW,225,0.7,4.0,83,0.00,,,0.00,WUHU216HW,2013-02-06 00:35:00,
2013-02-05 19:40:00,26.3,21.8,29.80,SW,225,2.7,2.7,83,0.00,,,0.00,WUHU216HW,2013-02-06 00:40:00,
2013-02-05 19:45:00,26.5,22.0,29.80,SSW,203,0.4,2.7,83,0.00,,,0.00,WUHU216HW,2013-02-06 00:45:00,
2013-02-05 19:50:00,26.5,22.0,29.80,WNW,293,1.1,1.8,83,0.00,,,0.00,WUHU216HW,2013-02-06 00:50:00,
2013-02-05 19:55:00,26.5,22.0,29.80,SW,225,0.7,1.6,83,0.00,,,0.00,WUHU216HW,2013-02-06 00:55:00,
2013-02-05 20:00:00,26.5,22.0,29.80,SSW,203,1.3,1.6,83,0.00,,,0.00,WUHU216HW,2013-02-06 01:00:00,
2013-02-05 20:05:00,26.5,22.0,29.80,SSW,203,1.8,5.4,83,0.00,,,0.00,WUHU216HW,2013-02-06 01:05:00,
2013-02-05 20:10:00,26.5,22.0,29.80,SSW,203,1.3,5.4,83,0.00,,,0.00,WUHU216HW,2013-02-06 01:10:00,
2013-02-05 20:15:00,26.5,22.0,29.80,SSW,203,2.0,3.8,83,0.00,,,0.00,WUHU216HW,2013-02-06 01:15:00,
2013-02-05 20:20:00,26.6,22.2,29.80,South,180,2.7,3.4,83,0.00,,,0.00,WUHU216HW,2013-02-06 01:20:00,
2013-02-05 20:25:00,26.6,22.2,29.80,SW,225,0.0,3.4,83,0.00,,,0.00,WUHU216HW,2013-02-06 01:25:00,
2013-02-05 20:30:00,26.6,22.2,29.80,SSW,203,2.5,2.9,83,0.00,,,0.00,WUHU216HW,2013-02-06 01:30:00,
2013-02-05 20:35:00,26.6,22.2,29.80,South,180,1.3,2.5,83,0.00,,,0.00,WUHU216HW,2013-02-06 01:35:00,
2013-02-05 20:40:00,26.6,22.4,29.80,SSW,203,3.4,3.4,84,0.00,,,0.00,WUHU216HW,2013-02-06 01:40:00,
2013-02-05 20:45:00,26.6,22.2,29.80,SSW,203,0.7,3.4,83,0.00,,,0.00,WUHU216HW,2013-02-06 01:45:00,
2013-02-05 20:50:00,26.6,22.2,29.81,SSW,203,3.4,3.4,83,0.00,,,0.00,WUHU216HW,2013-02-06 01:50:00,
2013-02-05 20:55:00,26.6,22.2,29.81,South,180,1.8,3.4,83,0.00,,,0.00,WUHU216HW,2013-02-06 01:55:00,
2013-02-05 21:00:00,26.6,22.2,29.81,SSW,203,0.9,2.9,83,0.00,,,0.00,WUHU216HW,2013-02-06 02:00:00,
2013-02-05 21:05:00,26.8,22.3,29.81,South,180,2.0,2.5,83,0.00,,,0.00,WUHU216HW,2013-02-06 02:05:00,
2013-02-05 21:10:00,26.8,22.3,29.81,WSW,248,0.9,2.5,83,0.00,,,0.00,WUHU216HW,2013-02-06 02:10:00,
2013-02-05 21:15:00,26.8,22.3,29.81,WSW,248,1.6,4.3,83,0.00,,,0.00,WUHU216HW,2013-02-06 02:15:00,
2013-02-05 21:20:00,26.8,22.6,29.81,South,180,1.3,4.3,84,0.00,,,0.00,WUHU216HW,2013-02-06 02:20:00,
2013-02-05 21:25:00,26.8,22.6,29.82,SSW,203,1.3,2.5,84,0.00,,,0.00,WUHU216HW,2013-02-06 02:25:00,
2013-02-05 21:30:00,26.8,22.6,29.82,SSE,158,2.0,2.5,84,0.00,,,0.00,WUHU216HW,2013-02-06 02:30:00,
2013-02-05 21:35:00,27.0,22.8,29.82,SSW,203,0.4,5.1,84,0.00,,,0.00,WUHU216HW,2013-02-06 02:35:00,
2013-02-05 21:40:00,27.0,22.8,29.82,SSW,203,1.3,5.1,84,0.00,,,0.00,WUHU216HW,2013-02-06 02:40:00,
2013-02-05 21:45:00,27.0,22.8,29.82,SW,225,0.0,2.0,84,0.00,,,0.00,WUHU216HW,2013-02-06 02:45:00,
2013-02-05 21:50:00,27.0,22.8,29.83,SW,225,0.0,2.0,84,0.00,,,0.00,WUHU216HW,2013-02-06 02:50:00,
2013-02-05 21:55:00,27.0,22.8,29.82,SSW,203,1.6,2.5,84,0.00,,,0.00,WUHU216HW,2013-02-06 02:55:00,
2013-02-05 22:00:00,27.0,23.0,29.83,SSW,203,1.6,2.5,85,0.00,,,0.00,WUHU216HW,2013-02-06 03:00:00,
2013-02-05 22:05:00,27.0,23.0,29.83,SSW,203,0.4,2.5,85,0.00,,,0.00,WUHU216HW,2013-02-06 03:05:00,
2013-02-05 22:10:00,27.2,23.2,29.83,SW,225,0.0,1.3,85,0.00,,,0.00,WUHU216HW,2013-02-06 03:10:00,
2013-02-05 22:15:00,27.2,23.2,29.83,SW,225,0.4,1.8,85,0.00,,,0.00,WUHU216HW,2013-02-06 03:15:00,
2013-02-05 22:20:00,27.4,23.4,29.83,SSW,203,1.1,1.8,85,0.00,,,0.00,WUHU216HW,2013-02-06 03:20:00,
2013-02-05 22:25:00,27.2,23.2,29.83,SSW,203,2.5,2.5,85,0.00,,,0.00,WUHU216HW,2013-02-06 03:25:00,
2013-02-05 22:30:00,27.4,23.4,29.83,SSW,203,0.2,2.5,85,0.00,,,0.00,WUHU216HW,2013-02-06 03:30:00,
2013-02-05 22:35:00,27.4,23.4,29.84,SSW,203,0.0,1.6,85,0.00,,,0.00,WUHU216HW,2013-02-06 03:35:00,
2013-02-05 22:40:00,27.4,23.4,29.84,SSW,203,0.0,0.4,85,0.00,,,0.00,WUHU216HW,2013-02-06 03:40:00,
2013-02-05 22:45:00,27.4,23.4,29.84,SW,225,0.9,0.9,85,0.00,,,0.00,WUHU216HW,2013-02-06 03:45:00,
2013-02-05 22:50:00,27.5,23.6,29.84,SSW,203,0.9,1.8,85,0.00,,,0.00,WUHU216HW,2013-02-06 03:50:00,
2013-02-05 22:55:00,27.5,23.6,29.85,SW,225,0.4,1.8,85,0.00,,,0.00,WUHU216HW,2013-02-06 03:55:00,
2013-02-05 23:00:00,27.7,23.8,29.85,SSW,203,0.0,1.6,85,0.00,,,0.00,WUHU216HW,2013-02-06 04:00:00,
2013-02-05 23:05:00,27.7,23.8,29.85,SSW,203,0.4,1.6,85,0.00,,,0.00,WUHU216HW,2013-02-06 04:05:00,
2013-02-05 23:10:00,27.7,23.8,29.85,WSW,248,0.4,2.2,85,0.00,,,0.00,WUHU216HW,2013-02-06 04:10:00,
2013-02-05 23:15:00,27.9,23.9,29.85,WSW,248,3.4,5.4,85,0.00,,,0.00,WUHU216HW,2013-02-06 04:15:00,
2013-02-05 23:20:00,27.9,23.9,29.85,West,270,0.4,5.4,85,0.00,,,0.00,WUHU216HW,2013-02-06 04:20:00,
2013-02-05 23:25:00,28.1,24.1,29.86,NW,315,0.7,2.0,85,0.00,,,0.00,WUHU216HW,2013-02-06 04:25:00,
2013-02-05 23:30:00,28.1,24.1,29.86,NW,315,0.0,2.0,85,0.00,,,0.00,WUHU216HW,2013-02-06 04:30:00,
2013-02-05 23:35:00,28.3,24.6,29.86,NNW,338,0.7,2.0,86,0.00,,,0.00,WUHU216HW,2013-02-06 04:35:00,
2013-02-05 23:40:00,28.3,24.6,29.87,NNW,338,4.7,4.7,86,0.00,,,0.00,WUHU216HW,2013-02-06 04:40:00,
2013-02-05 23:45:00,28.3,24.8,29.87,NW,315,2.9,4.7,87,0.00,,,0.00,WUHU216HW,2013-02-06 04:45:00,
2013-02-05 23:50:00,28.4,24.8,29.88,NW,315,1.8,2.9,86,0.00,,,0.00,WUHU216HW,2013-02-06 04:50:00,
2013-02-05 23:55:00,28.4,25.0,29.88,NNW,338,1.1,3.4,87,0.00,,,0.00,WUHU216HW,2013-02-06 04:55:00,